Weather History for KKLS - August, 2014

Change the Weather History Date:

Monday, August 25, 2014

  Actual Average Record
Temperature  
Mean Temperature 71 °F -  
Max Temperature 89 °F 73 °F 91 °F (2005)
Min Temperature 53 °F 53 °F 46 °F (2005)
Cooling Degree Days 6    
Growing Degree Days 21 (Base 50)    
Moisture  
Dew Point 53 °F    
Average Humidity 57    
Maximum Humidity 88    
Minimum Humidity 27    
Precipitation  
Precipitation 0.00 in - - ()
Sea Level Pressure  
Sea Level Pressure 30.00 in    
Wind  
Wind Speed 3 mph (NNW)    
Max Wind Speed 12 mph    
Max Gust Speed 18 mph    
Visibility 10 miles    
Events      
Averages and records for this station are not official NWS values.
T = Trace of Precipitation, MM = Missing Value Source: NWS Daily Summary

Daily Weather History Graph

Daily Weather History Graph

Search for Another Location

Airport or City:

Trip Planner

Search our weather history database for the weather conditions in past years. The results will help you decide how hot, cold, wet, or windy it might be!

Date:

Astronomy

Aug. 25, 2014 Rise Set
Actual Time 6:23 AM PDT 8:02 PM PDT
Civil Twilight 5:51 AM PDT 8:34 PM PDT
Nautical Twilight 5:13 AM PDT 9:12 PM PDT
Astronomical Twilight 4:31 AM PDT 9:54 PM PDT
Moon 6:37 AM PDT (8/25) 7:51 PM PDT (8/25)
Length of Visible Light 14h 42m
Length of Day
13h 39m
New Moon, 0% of the Moon is Illuminated
Aug 25
New Moon
Sep 2
First Quarter
Sep 8
Full
Sep 15
Last Quarter
Sep 23
New

Hourly Weather History & Observations

Time (PDT) Temp. Heat Index Dew Point Humidity Pressure Visibility Wind Dir Wind Speed Gust Speed Precip Events Conditions
12:15 AM 60.8 °F - 51.8 °F 72% 29.99 in 10.0 mi Calm Calm - N/A   Clear
12:35 AM 59.0 °F - 53.6 °F 82% 30.00 in 10.0 mi NNW 3.5 mph - N/A   Clear
12:55 AM 60.8 °F - 53.6 °F 77% 30.00 in 10.0 mi Calm Calm - N/A   Clear
1:15 AM 59.0 °F - 53.6 °F 82% 30.01 in 10.0 mi Calm Calm - N/A   Clear
1:35 AM 60.8 °F - 53.6 °F 77% 30.01 in 10.0 mi Calm Calm - N/A   Clear
2:15 AM 57.2 °F - 51.8 °F 82% 30.00 in 10.0 mi Calm Calm - N/A   Clear
2:35 AM 57.2 °F - 51.8 °F 82% 30.00 in 10.0 mi Calm Calm - N/A   Clear
2:55 AM 57.2 °F - 51.8 °F 82% 30.00 in 10.0 mi Calm Calm - N/A   Clear
3:15 AM 57.2 °F - 51.8 °F 82% 30.00 in 10.0 mi Calm Calm - N/A   Clear
3:35 AM 55.4 °F - 51.8 °F 88% 30.01 in 10.0 mi Calm Calm - N/A   Clear
3:55 AM 57.2 °F - 51.8 °F 82% 30.01 in 10.0 mi Calm Calm - N/A   Clear
4:15 AM 55.4 °F - 51.8 °F 88% 30.01 in 10.0 mi Calm Calm - N/A   Clear
4:35 AM 55.4 °F - 51.8 °F 88% 30.01 in 10.0 mi Calm Calm - N/A   Clear
5:15 AM 55.4 °F - 51.8 °F 88% 30.02 in 10.0 mi Calm Calm - N/A   Clear
5:35 AM 55.4 °F - 50.0 °F 82% 30.03 in 10.0 mi Calm Calm - N/A   Clear
5:55 AM 55.4 °F - 51.8 °F 88% 30.02 in 10.0 mi Calm Calm - N/A   Clear
6:15 AM 55.4 °F - 50.0 °F 82% 30.03 in 9.0 mi Calm Calm - N/A   Clear
6:35 AM 53.6 °F - 50.0 °F 88% 30.03 in 10.0 mi Calm Calm - N/A   Clear
6:55 AM 53.6 °F - 48.2 °F 82% 30.03 in 10.0 mi Calm Calm - N/A   Clear
7:35 AM 57.2 °F - 51.8 °F 82% 30.04 in 10.0 mi Calm Calm - N/A   Clear
7:55 AM 57.2 °F - 51.8 °F 82% 30.05 in 10.0 mi Calm Calm - N/A   Clear
8:15 AM 59.0 °F - 51.8 °F 77% 30.05 in 10.0 mi Calm Calm - N/A   Clear
8:35 AM 60.8 °F - 53.6 °F 77% 30.05 in 10.0 mi North 4.6 mph - N/A   Clear
8:55 AM 62.6 °F - 53.6 °F 72% 30.05 in 10.0 mi North 8.1 mph - N/A   Clear
9:15 AM 64.4 °F - 53.6 °F 68% 30.05 in 10.0 mi NNW 4.6 mph - N/A   Clear
9:35 AM 66.2 °F - 53.6 °F 64% 30.05 in 10.0 mi NNW 3.5 mph - N/A   Clear
9:55 AM 68.0 °F - 53.6 °F 60% 30.04 in 10.0 mi NNW 6.9 mph - N/A   Clear
10:15 AM 69.8 °F - 53.6 °F 56% 30.04 in 10.0 mi NNW 10.4 mph - N/A   Clear
10:35 AM 71.6 °F - 53.6 °F 53% 30.04 in 10.0 mi North 9.2 mph - N/A   Clear
10:55 AM 73.4 °F - 53.6 °F 50% 30.03 in 10.0 mi North 9.2 mph - N/A   Clear
11:15 AM 73.4 °F - 53.6 °F 50% 30.03 in 10.0 mi NW 8.1 mph - N/A   Clear
11:35 AM 75.2 °F - 53.6 °F 47% 30.02 in 10.0 mi NNW 5.8 mph - N/A   Clear
11:55 AM 77.0 °F - 55.4 °F 47% 30.02 in 10.0 mi NW 4.6 mph - N/A   Clear
12:15 PM 78.8 °F - 55.4 °F 44% 30.01 in 10.0 mi NNW 8.1 mph - N/A   Clear
12:35 PM 80.6 °F 80.5 °F 55.4 °F 42% 30.01 in 10.0 mi NW 6.9 mph - N/A   Clear
12:55 PM 80.6 °F 80.5 °F 55.4 °F 42% 30.00 in 10.0 mi NNW 8.1 mph - N/A   Clear
1:15 PM 82.4 °F 81.7 °F 55.4 °F 39% 30.00 in 10.0 mi North 8.1 mph - N/A   Clear
1:35 PM 82.4 °F 81.7 °F 55.4 °F 39% 29.99 in 10.0 mi NNW 4.6 mph - N/A   Clear
1:55 PM 84.2 °F 83.0 °F 55.4 °F 37% 29.99 in 10.0 mi North 8.1 mph - N/A   Clear
2:15 PM 87.8 °F 85.7 °F 53.6 °F 31% 29.98 in 10.0 mi NNW 9.2 mph 16.1 mph N/A   Clear
2:35 PM 86.0 °F 84.2 °F 53.6 °F 33% 29.97 in 10.0 mi North 8.1 mph - N/A   Clear
2:55 PM 87.8 °F - 51.8 °F 29% 29.97 in 10.0 mi North 11.5 mph 16.1 mph N/A   Clear
3:15 PM 87.8 °F - 51.8 °F 29% 29.97 in 10.0 mi NW 6.9 mph - N/A   Clear
3:35 PM 87.8 °F - 51.8 °F 29% 29.96 in 10.0 mi North 5.8 mph 18.4 mph N/A   Clear
3:55 PM 87.8 °F - 51.8 °F 29% 29.96 in 10.0 mi North 8.1 mph 16.1 mph N/A   Clear
4:15 PM 89.6 °F - 51.8 °F 27% 29.96 in 10.0 mi North 11.5 mph 17.3 mph N/A   Clear
4:35 PM 87.8 °F - 50.0 °F 27% 29.95 in 10.0 mi NNW 11.5 mph - N/A   Clear
4:55 PM 87.8 °F - 50.0 °F 27% 29.95 in 10.0 mi North 5.8 mph - N/A   Clear
5:15 PM 87.8 °F - 50.0 °F 27% 29.95 in 10.0 mi NNW 11.5 mph 18.4 mph N/A   Clear
5:35 PM 87.8 °F - 50.0 °F 27% 29.95 in 10.0 mi NNW 9.2 mph 17.3 mph N/A   Clear
5:55 PM 87.8 °F - 50.0 °F 27% 29.95 in 10.0 mi NNW 9.2 mph 16.1 mph N/A   Clear
6:15 PM 86.0 °F - 48.2 °F 27% 29.95 in 10.0 mi NW 6.9 mph - N/A   Clear
6:35 PM 86.0 °F - 48.2 °F 27% 29.95 in 10.0 mi NW 9.2 mph - N/A   Clear
6:55 PM 84.2 °F - 48.2 °F 29% 29.95 in 10.0 mi NW 5.8 mph - N/A   Clear
7:15 PM 84.2 °F - 48.2 °F 29% 29.95 in 10.0 mi NNW 3.5 mph - N/A   Clear
7:35 PM 82.4 °F - 48.2 °F 30% 29.95 in 10.0 mi NW 3.5 mph - N/A   Clear
8:15 PM 78.8 °F - 55.4 °F 44% 29.97 in 10.0 mi WNW 3.5 mph - N/A   Clear
8:35 PM 77.0 °F - 55.4 °F 47% 29.97 in 10.0 mi Calm Calm - N/A   Clear
8:55 PM 75.2 °F - 55.4 °F 50% 29.98 in 10.0 mi Calm Calm - N/A   Clear
9:15 PM 73.4 °F - 55.4 °F 53% 29.99 in 10.0 mi Calm Calm - N/A   Clear
9:35 PM 71.6 °F - 55.4 °F 57% 30.00 in 10.0 mi Calm Calm - N/A   Clear
9:55 PM 69.8 °F - 55.4 °F 60% 30.00 in 10.0 mi Calm Calm - N/A   Clear
10:15 PM 68.0 °F - 55.4 °F 64% 30.00 in 10.0 mi Calm Calm - N/A   Clear
10:35 PM 68.0 °F - 55.4 °F 64% 30.01 in 9.0 mi NNE 3.5 mph - N/A   Clear
10:55 PM 68.0 °F - 53.6 °F 60% 30.01 in 10.0 mi Calm Calm - N/A   Clear
11:15 PM 69.8 °F - 53.6 °F 56% 30.01 in 10.0 mi NNE 3.5 mph - N/A   Clear
11:35 PM 68.0 °F - 53.6 °F 60% 30.02 in 10.0 mi Calm Calm - N/A   Clear
11:55 PM 66.2 °F - 53.6 °F 64% 30.02 in 10.0 mi Calm Calm - N/A   Clear